[[{"header":{"parameterUnit":"m.s-1","parameterCategory":1,"la1":30.2991,"la2":30.254,"lo1":-89.0895,"lo2":-89.0444,"dy":0.0017,"dx":0.0017,"nx":28,"ny":28,"refTime":"2025-06-18T03:00:00:Z","depth":0,"parameterNumber":2,"parameterNumberName":"U-component_of_WINDS"},"data":[0,0,0,0,0,0,0,0,0,0,0,0,0,0,0,0,0,0,0,0,0,0,0,0,0,0,0,0,0,0,0,0,0,0,0,0,0,0,0,0,0,0,0,0,0,0,0,0,0,0,0,0,0,0,0,0,0,0,0.9161,0.9163,0,0.9295,0.9297,0.9299,0.9371,0.9371,0.9372,0.9372,0.9513,0.9516,0.952,0,0,0,0,0,0,0,0,0,0,0,0,0,0.8972,0.8976,0.9161,0.9163,0.9164,0.9295,0.9297,0.9299,0.9371,0.9371,0.9372,0.9372,0.9512,0.9516,0.952,0,0,0,0,0,0,0,0,0,0,0,0,0,0.9075,0.8977,0.9161,0.9216,0.9222,0.9295,0.9297,0.9299,0.9371,0.9371,0.9372,0.9372,0.951,0.9516,0.9521,0.955,0,0,0.9537,0.954,0,0,0,0,0,0,0,0,0.9069,0.9082,0.9206,0.9213,0.922,0.9317,0.9282,0.9383,0.9371,0.9315,0.9372,0.9372,0.9448,0.9458,0.9483,0.9556,0.9562,0.9538,0.9541,0.9544,0.9545,0,0,0,0,0,0,0,0.9062,0.9077,0.9214,0.9208,0.9216,0.9236,0.9251,0.9302,0.9378,0.932,0.9325,0.934,0.9451,0.9478,0.9487,0.9564,0.9538,0.9543,0.9546,0.9548,0.9671,0.9671,0,0,0,0,0,0,0.9046,0.907,0.921,0.9218,0.9143,0.9239,0.9256,0.9285,0.9378,0.9392,0.934,0.9343,0.9468,0.948,0.9492,0.9534,0.9543,0.9549,0.9552,0.9671,0.9671,0.9671,0,0,0,0,0,0,0.9041,0.9057,0.9205,0.9146,0.9166,0.9242,0.9275,0.9288,0.9314,0.9393,0.9408,0.9352,0.9469,0.9485,0.9535,0.954,0.9551,0.9556,0.9671,0.9671,0.9671,0.9616,0,0,0,0,0,0,0.9035,0.9055,0.9065,0.9146,0.9169,0.9244,0.9275,0.929,0.9323,0.9328,0.9409,0.9422,0.947,0.9527,0.9541,0.9548,0.956,0.9671,0.9671,0.9671,0.9618,0.9614,0.9611,0,0,0,0,0,0.9028,0.9045,0.9066,0.9082,0.9183,0.9244,0.9257,0.9311,0.9323,0.9335,0.9386,0.942,0.9537,0.9531,0.9548,0.9556,0.9671,0.9671,0.9671,0.962,0.9615,0.9611,0,0,0,0,0,0,0.8963,0.9056,0.908,0.9122,0.9175,0.9256,0.9272,0.9305,0.9355,0.9358,0.9425,0.9442,0.9487,0.9527,0.9519,0.9591,0.9608,0.9611,0.9563,0.9559,0.9556,0.9546,0.9565,0,0,0,0,0,0.8954,0.8994,0.9073,0.9103,0.9128,0.9195,0.9224,0.9261,0.9318,0.9341,0.9396,0.9451,0.9501,0.9532,0.9582,0.9624,0.9644,0.9638,0.9635,0.9632,0.9634,0.9662,0.9661,0.9672,0.9672,0.9672,0,0,0.8935,0.899,0.9012,0.9091,0.9136,0.9178,0.9214,0.9256,0.9288,0.9348,0.9399,0.9442,0.9508,0.9555,0.9579,0.959,0.9636,0.9632,0.9629,0.9633,0.9662,0.9661,0.966,0.9672,0.9672,0.9672,0,0,0.8922,0.8967,0.8998,0.9042,0.911,0.9155,0.9162,0.9239,0.9269,0.9322,0.9369,0.9409,0.9492,0.9539,0.9573,0.958,0.9614,0.9595,0.9578,0.9604,0.9603,0.9603,0.9607,0.9608,0.9597,0.9597,0.9597,0,0.889,0.8953,0.901,0.905,0.9085,0.9141,0.9174,0.9215,0.9295,0.9319,0.933,0.9438,0.9486,0.9546,0.9548,0.9573,0.9586,0.9586,0.9598,0.9599,0.9599,0.9604,0.9606,0.9594,0.9594,0.9595,0.9595,0,0.8912,0.8955,0.8973,0.9049,0.9086,0.9122,0.9186,0.9217,0.9252,0.9297,0.9351,0.9412,0.9476,0.9493,0.9527,0.9559,0.9564,0.9585,0.9604,0.9595,0.9601,0.9603,0.959,0.9591,0.9592,0.9593,0,0,0.886,0.8969,0.8974,0.9011,0.909,0.9126,0.9167,0.9229,0.9255,0.9309,0.9346,0.9417,0.9438,0.9477,0.9518,0.9541,0.9545,0.956,0.9563,0.9557,0.9587,0.957,0.9571,0.9568,0.9568,0.9569,0.9582,0,0.886,0.8934,0.8987,0.9041,0.9084,0.9138,0.9174,0.9228,0.9271,0.9315,0.9364,0.9414,0.9437,0.9461,0.9486,0.9539,0.9552,0.9539,0.9605,0.9607,0.9587,0.9574,0.9557,0.9566,0.9584,0.9584,0.9585,0,0.8869,0.8922,0.8979,0.9057,0.9077,0.9108,0.9171,0.9211,0.9274,0.9305,0.9349,0.9391,0.9438,0.9452,0.952,0.951,0.954,0.957,0.9572,0.9581,0.9595,0.9584,0.957,0.9571,0.9589,0.9588,0.9588,0,0.8828,0.8913,0.896,0.8989,0.908,0.9101,0.914,0.9203,0.9238,0.9294,0.9318,0.9378,0.9411,0.9458,0.9516,0.952,0.9578,0.9597,0.9607,0.9605,0.9617,0.9615,0.9608,0.9634,0.9634,0.9634,0.9634,0,0.8823,0.8857,0.8943,0.8972,0.9012,0.9074,0.9113,0.9157,0.9214,0.9253,0.9304,0.9341,0.9415,0.9461,0.9506,0.9557,0.9571,0.9598,0.961,0.9594,0.9591,0.9616,0.9617,0.9634,0.9634,0.9634,0.9634,0,0.8784,0.8843,0.8898,0.898,0.9001,0.9028,0.9099,0.913,0.9177,0.9227,0.9242,0.9316,0.9373,0.9435,0.9513,0.9544,0.9593,0.9609,0.9571,0.9578,0.9585,0.9584,0.9594,0.9599,0.962,0.962,0.9619,0,0.8777,0.8805,0.889,0.892,0.8958,0.9005,0.9042,0.9104,0.914,0.9216,0.9238,0.9299,0.9351,0.944,0.9502,0.9563,0.9582,0.9581,0.9591,0.9575,0.9584,0.9582,0.9586,0.9578,0.9578,0.9577,0.9577,0,0.876,0.8788,0.8838,0.8898,0.894,0.899,0.9043,0.9065,0.9139,0.9177,0.9236,0.9276,0.9357,0.9417,0.9486,0.9528,0.9566,0.9573,0.9579,0.9564,0.9541,0.9555,0.9564,0.9573,0.9573,0.9574,0.9574,0.9574,0.8738,0.8766,0.8831,0.8886,0.8932,0.8981,0.9015,0.9066,0.9116,0.9185,0.922,0.9279,0.9345,0.944,0.9482,0.953,0.9542,0.9549,0.9552,0.9553,0.955,0.9532,0.9543,0.9543,0.9543,0.9543,0.9544,0,0.8725,0.877,0.8819,0.8892,0.8935,0.8966,0.9027,0.9061,0.9112,0.9169,0.922,0.9289,0.9348,0.9415,0.9479,0.9505,0.9524,0.952,0.952,0.9529,0.9535,0.9524,0.9504,0.9504,0.9504,0.9504,0.9504,0.9504,0.8723,0.8773,0.8809,0.8883,0.8929,0.8986,0.9019,0.9065,0.9111,0.9185,0.9235,0.9278,0.934,0.9409,0.9466,0.9484,0.9506,0.9498,0.9521,0.9525,0.9528,0.9531,0.9522,0.9501,0.9501,0.9512,0.9512,0.9512]},{"header":{"parameterUnit":"m.s-1","parameterCategory":1,"la1":30.2991,"la2":30.254,"lo1":-89.0895,"lo2":-89.0444,"dy":0.0017,"dx":0.0017,"nx":28,"ny":28,"refTime":"2025-06-18T03:00:00:Z","depth":0,"parameterNumber":3,"parameterNumberName":"V-component_of_WINDS"},"data":[0,0,0,0,0,0,0,0,0,0,0,0,0,0,0,0,0,0,0,0,0,0,0,0,0,0,0,0,0,0,0,0,0,0,0,0,0,0,0,0,0,0,0,0,0,0,0,0,0,0,0,0,0,0,0,0,0,0,4.5806,4.5806,0,4.5834,4.5835,4.5835,4.5819,4.5818,4.5818,4.5817,4.5842,4.5843,4.5845,0,0,0,0,0,0,0,0,0,0,0,0,0,4.5733,4.5735,4.5806,4.5806,4.5807,4.5834,4.5835,4.5835,4.5819,4.5818,4.5817,4.5817,4.5842,4.5843,4.5845,0,0,0,0,0,0,0,0,0,0,0,0,0,4.5763,4.5735,4.5806,4.5802,4.5802,4.5834,4.5835,4.5835,4.582,4.5818,4.5817,4.5816,4.5841,4.5843,4.5845,4.5881,0,0,4.5852,4.5852,0,0,0,0,0,0,0,0,4.5762,4.5766,4.5802,4.5803,4.5803,4.5822,4.5818,4.5851,4.582,4.5813,4.5817,4.5816,4.5836,4.5839,4.5846,4.5883,4.5884,4.5852,4.5853,4.5854,4.5855,0,0,0,0,0,0,0,4.576,4.5765,4.5817,4.5803,4.5803,4.5798,4.5801,4.5824,4.583,4.5813,4.5812,4.5816,4.5836,4.5844,4.5847,4.5884,4.5852,4.5854,4.5855,4.5856,4.595,4.5951,0,0,0,0,0,0,4.5758,4.5763,4.5816,4.5818,4.5779,4.58,4.5803,4.5817,4.583,4.5831,4.5817,4.5815,4.5841,4.5844,4.5848,4.589,4.5854,4.5856,4.5857,4.5948,4.595,4.5951,0,0,0,0,0,0,4.5757,4.5763,4.5815,4.579,4.5796,4.5802,4.5818,4.5818,4.5827,4.5833,4.5834,4.5825,4.5841,4.5845,4.5873,4.589,4.5857,4.5859,4.5947,4.5949,4.595,4.5975,0,0,0,0,0,0,4.5755,4.5763,4.5778,4.5791,4.5798,4.5841,4.5819,4.582,4.5831,4.5829,4.5841,4.5841,4.584,4.587,4.5875,4.5893,4.586,4.5945,4.5948,4.595,4.5973,4.5977,4.5982,0,0,0,0,0,4.5752,4.5783,4.5779,4.5785,4.5817,4.5842,4.5846,4.5845,4.5832,4.5846,4.585,4.5841,4.5888,4.5873,4.5879,4.5897,4.5944,4.5947,4.595,4.5971,4.5976,4.5981,0,0,0,0,0,0,4.5771,4.5785,4.578,4.5816,4.5828,4.584,4.5858,4.5852,4.5867,4.5864,4.5861,4.5864,4.5893,4.5898,4.5881,4.5932,4.5914,4.5918,4.5928,4.5933,4.5938,4.5935,4.5862,0,0,0,0,0,4.5779,4.58,4.5811,4.5841,4.5848,4.5852,4.5863,4.5861,4.5873,4.5878,4.5884,4.5895,4.5912,4.5923,4.5939,4.5973,4.5975,4.5989,4.5993,4.5997,4.6,4.6017,4.6023,4.596,4.596,4.596,0,0,4.5796,4.5807,4.582,4.5845,4.5855,4.5875,4.5856,4.5879,4.5893,4.5881,4.5908,4.5913,4.5924,4.5956,4.597,4.5961,4.6018,4.6,4.6003,4.6004,4.6021,4.6027,4.6032,4.5962,4.5962,4.5962,0,0,4.5838,4.5849,4.5875,4.5884,4.5899,4.5901,4.5908,4.592,4.5923,4.5951,4.5941,4.5958,4.5988,4.5996,4.6004,4.6048,4.604,4.6054,4.6077,4.6093,4.6098,4.6103,4.6117,4.6122,4.6057,4.6057,4.6057,0,4.5857,4.5889,4.5888,4.5912,4.5922,4.5913,4.5939,4.5948,4.5966,4.5973,4.5963,4.6,4.6007,4.604,4.605,4.6058,4.6063,4.6052,4.6098,4.6102,4.6106,4.612,4.6125,4.6059,4.6058,4.6058,4.6058,0,4.591,4.5932,4.5951,4.5971,4.5984,4.6008,4.601,4.6023,4.602,4.6023,4.605,4.6058,4.6075,4.6083,4.608,4.6115,4.6109,4.6099,4.608,4.6114,4.6126,4.6132,4.6061,4.606,4.606,4.6059,0,0,4.5964,4.5983,4.599,4.5998,4.6013,4.6029,4.6052,4.607,4.6081,4.6094,4.6112,4.6137,4.6128,4.6137,4.6134,4.6149,4.6182,4.6137,4.6137,4.6144,4.6219,4.6226,4.6233,4.6177,4.6178,4.6179,4.6218,0,4.6005,4.6047,4.6047,4.6085,4.6104,4.6096,4.6116,4.6126,4.6129,4.6145,4.6148,4.6165,4.6152,4.6158,4.6172,4.6175,4.6197,4.6172,4.6192,4.6193,4.6189,4.624,4.6247,4.6284,4.6223,4.6224,4.6225,0,4.6059,4.6075,4.6115,4.6127,4.6135,4.6153,4.6169,4.6184,4.6196,4.6197,4.6207,4.6202,4.6224,4.6206,4.6235,4.6218,4.6226,4.6229,4.623,4.6231,4.621,4.6241,4.6296,4.6301,4.6233,4.6232,4.6232,0,4.6093,4.6124,4.6152,4.6159,4.6174,4.6186,4.6193,4.6203,4.6213,4.6227,4.6233,4.6249,4.6257,4.6269,4.6267,4.6254,4.6296,4.6278,4.6297,4.6297,4.6305,4.6304,4.6361,4.6312,4.6312,4.6312,4.6312,0,4.6138,4.6163,4.6167,4.6184,4.621,4.621,4.6235,4.624,4.625,4.6266,4.6259,4.6275,4.6273,4.6288,4.6287,4.6311,4.6314,4.6315,4.6314,4.6315,4.6315,4.632,4.6317,4.6313,4.6313,4.6313,4.6312,0,4.618,4.6184,4.6213,4.6225,4.6228,4.6247,4.6256,4.6272,4.6274,4.6295,4.63,4.6304,4.6321,4.6321,4.6341,4.634,4.6369,4.6365,4.6365,4.6364,4.6382,4.638,4.6443,4.6451,4.6398,4.6398,4.6399,0,4.6208,4.6227,4.6241,4.6252,4.626,4.6278,4.6289,4.6288,4.63,4.6314,4.6327,4.6344,4.6357,4.6385,4.6388,4.6403,4.64,4.6421,4.6402,4.6402,4.6399,4.6397,4.6399,4.6424,4.6425,4.6425,4.6426,0,4.6258,4.6259,4.6276,4.6293,4.6306,4.6319,4.6331,4.6341,4.6342,4.6354,4.6373,4.6383,4.6403,4.642,4.6434,4.6439,4.6432,4.6432,4.6436,4.6437,4.6436,4.6436,4.6374,4.643,4.643,4.6429,4.6429,4.6429,4.6293,4.6309,4.6321,4.6339,4.6349,4.636,4.6375,4.638,4.6396,4.6413,4.6411,4.6431,4.6441,4.6459,4.6466,4.648,4.6473,4.648,4.6482,4.6483,4.6485,4.6434,4.6483,4.6483,4.6483,4.6482,4.6482,0,4.6341,4.6349,4.6366,4.6384,4.6398,4.6392,4.6404,4.6416,4.6434,4.6445,4.6458,4.6478,4.6494,4.6499,4.6514,4.6525,4.6522,4.6529,4.6527,4.6528,4.6491,4.6485,4.6531,4.6531,4.6531,4.6531,4.6531,4.6531,4.6368,4.6394,4.6397,4.6427,4.6434,4.6454,4.6462,4.6472,4.648,4.6503,4.6517,4.6521,4.6528,4.6544,4.6557,4.6558,4.6564,4.6571,4.6571,4.6536,4.6531,4.6526,4.6521,4.6573,4.6573,4.6607,4.6607,4.6607]}]]